Regional Weather Roundup
Issued by NWS Wilmington, NC

Home | Current Version | Previous Version | Text Only | Print | Product List | Glossary On
Versions: 1 2 3 4 5 6 7 8 9 10 11 12 13 14 15 16 17 18 19 20 21 22 23 24 25 26 27 28 29 30 31 32 33 34 35 36 37 38 39 40 41 42 43 44 45 46 47 48 49 50
000
ASUS42 KILM 271213
RWRILM
RWRILM
REGIONAL HOURLY WEATHER ROUNDUP
NATIONAL WEATHER SERVICE WILMINGTON NC
800 AM EDT TUE SEP 27 2016

NOTE: "FAIR" INDICATES FEW OR NO CLOUDS BELOW 12,000 FEET WITH NO
SIGNIFICANT WEATHER AND/OR OBSTRUCTIONS TO VISIBILITY.

...............WFO WILMINGTON COUNTY WARNING AREA...............

......COASTAL NC AND SC COUNTIES......

CITY           SKY/WX    TMP DP  RH WIND       PRES   REMARKS
WILMINGTON     CLOUDY    71  68  90 E3        29.95F
N MYRTLE BEACH CLOUDY    73  71  93 N3        29.95F
MYRTLE BEACH   PTSUNNY   73  64  73 CALM      29.96F

......INLAND NC AND SC COUNTIES.......

CITY           SKY/WX    TMP DP  RH WIND       PRES   REMARKS
LUMBERTON      CLOUDY    71  69  93 CALM      29.96R FOG
ELIZABETHTOWN  CLOUDY    70  70 100 CALM      29.96F FOG
WHITEVILLE     NOT AVBL
FLORENCE       CLOUDY    72  69  90 CALM      29.97R
DARLINGTON     CLOUDY    68  67  96 NW5       29.99R
KINGSTREE      CLOUDY    70  68  94 CALM      29.96R FOG
HARTSVILLE     CLOUDY    68  64  88 CALM      29.99R
BENNETTSVILLE  FAIR      70  68  94 NW6       29.98R
CONWAY         FAIR      70  70 100 CALM      29.96R FOG
GEORGETOWN     FAIR      70  70 100 CALM      29.96S
MARION         FAIR      70  68  94 CALM      29.96S

....................REST OF NORTH CAROLINA......................

.........EASTERN NC.........

CITY           SKY/WX    TMP DP  RH WIND       PRES   REMARKS
CAPE HATTERAS  CLOUDY    78  67  68 S8        29.98R
JACKSONVILLE   CLOUDY    69  68  96 CALM      29.97F
MOREHEAD CITY  LGT RAIN  74  70  87 CALM      29.97S
KENANSVILLE    MOSUNNY   68  68 100 CALM      29.97S FOG
NEW BERN       CLOUDY    70  68  93 CALM      29.98F
ELIZABETH CITY PTSUNNY   72  66  81 S3        29.97S

.........CENTRAL NC.........

CITY           SKY/WX    TMP DP  RH WIND       PRES   REMARKS
RALEIGH DURHAM CLOUDY    68  66  93 CALM      29.99R
ROCKY MOUNT    CLOUDY    69  69 100 CALM      29.98R FOG
ROANOKE RAPIDS NOT AVBL
FAYETTEVILLE   CLOUDY    71  68  90 CALM      29.97S
HOFFMAN        CLOUDY    66  65  96 NW1       29.98R

.........WESTERN NC.........

CITY           SKY/WX    TMP DP  RH WIND       PRES   REMARKS
CHARLOTTE      CLOUDY    68  66  93 CALM      30.00S
GREENSBORO     CLOUDY    67  67 100 SW7       29.98S FOG
HICKORY        NOT AVBL
BOONE          NOT AVBL
ASHEVILLE      NOT AVBL

.....................REST OF SOUTH CAROLINA.....................

.........EASTERN SC.........

CITY           SKY/WX    TMP DP  RH WIND       PRES   REMARKS
CHARLESTON     CLOUDY    74  71  91 N3        29.95R
BEAUFORT MCAS  MOCLDY    74  72  93 N5        29.95R
HILTON HEAD    MOCLDY    73  73 100 NE7       29.96R

.........CENTRAL SC.........

CITY           SKY/WX    TMP DP  RH WIND       PRES   REMARKS
COLUMBIA       PTCLDY    69  66  90 CALM      29.97S FOG
ORANGEBURG     CLEAR     71  70  96 N5        29.97R
SUMTER SHAW    CLOUDY    71  69  94 N6        29.96R FOG

.........WESTERN SC.........

CITY           SKY/WX    TMP DP  RH WIND       PRES   REMARKS
GREENVILLE     NOT AVBL
ROCK HILL      CLOUDY    67  67 100 CALM      30.00S FOG
ANDERSON       CLOUDY    70  68  93 CALM      29.99S
CLEMSON        NOT AVBL
GREENWOOD      PTCLDY    67  64  90 CALM      30.00F FOG


...................COASTAL AND OFFSHORE REPORTS..................

................LOCAL PIERS AND NC RESERVE................


STATION/POSITION TIME  SKY/WX   TEMP    WIND        PRES    VSBY
                                AIR SEA DIR/SP/G
                 (UTC)          (F)     (DEG/KT/KT) (MB)    (MI)
JOHNY MRCER PIER 1148            75 82  120/  1/  2 1013.5F
NC RESRV MASNBRO 1045            74     330/  1     1013.0
OCEAN CREST PIER NOT AVBL
SPRINGMAID  PIER 1148            73 81  320/  4/  4 1013.7F


................COASTAL AND OFFSHORE BUOYS................


STATION/POSITION TIME  SKY/WX   TEMP    WIND        PRES    VSBY
                                AIR SEA DIR/SP/G
                 (UTC)          (F)     (DEG/KT/KT) (MB)    (MI)
DIMNDSHOAL 41025 1150            80 84  170/ 10/ 14 1015.1R
WVE H/P(F/S)=  3/ 5 SWL H/P/D(F/S/D)=  3/110/ 5

CAPE LOOKOUT     1200            78     110/  7/  8 1014.5R
ONSLOW BAY 41036 NOT AVBL
ONSLOW BAY 41064 1108            78 83  140/ 14/ 17 1014.3R
ONSLOW BAY 41159 1155               82                N/A
WVE H/P(F/S)=  4/ 5

5SE WRITBC 41038 NOT AVBL
MASNBO INL 41110 1159               80                N/A
WVE H/P(F/S)=  3/ 5

WILM HARBR 41108 1156               81                N/A
WVE H/P(F/S)=  3/ 5

27SE WRITB 41037 1108            80 81  190/  2/  6 1014.5R
FRYING PAN 41013 1150            79 82   40/  6/  8 1014.0R
WVE H/P(F/S)=  3/ 6 SWL H/P/D(F/S/D)=  3/110/ 6

SUNST NRSH 41024 1108            75 81  340/  6/ 10 1014.1R
CAPRS NRSH 41029 1108            75 81  150/  4/  8 1013.9R
EDISTO     41004 1150            75 82   80/  2/  4 1013.6R
WVE H/P(F/S)=  3/ 8 SWL H/P/D(F/S/D)=  3/100/ 8



..........OFFSHORE BUOYS BEYOND 100 NM OFFSHORE...........
.....IN A TRIANGLE---HAT TO BERMUDA TO BAHAMAS TO HAT.....


STATION/POSITION TIME  SKY/WX   TEMP    WIND        PRES    VSBY
                                AIR SEA DIR/SP/G
                 (UTC)          (F)     (DEG/KT/KT) (MB)    (MI)
150E HAT   41001 NOT AVBL
W BERMUDA  41048 1150            79 83  110/ 17/ 19 1017.1S
WVE H/P(F/S)=  6/ 8 SWL H/P/D(F/S/D)=  3/ 30/ 8

ATLANTIC S 41049 1150            82 83   90/  6/  8 1018.0R
WVE H/P(F/S)=  6/ 9 SWL H/P/D(F/S/D)=  7/360/ 9

E BAHAMAS  41046 1150            84 86  130/ 10/ 14 1015.6R
WVE H/P(F/S)=  4/11 SWL H/P/D(F/S/D)=  3/ 80/11

NE BAHAMAS 41047 1150            82 86  110/ 14/ 17 1015.3R
WVE H/P(F/S)=  5/11 SWL H/P/D(F/S/D)=  5/ 90/11

120E CANVRL41010 NOT AVBL

END



USA.gov is the U.S. government's official web portal to all federal, state and local government web resources and services.